sat.trackr.live / text

‹ back to catalog

BEIDOU-2 IGSO-1 (C06)

NORAD 36828 · 2010-036A

PAYLOAD ACTIVE UNKNOWN

§ Identity

Operator
Country
PRC
Launch date
2010-07-31
Launch site
XICLF
Launch vehicle
Mass (kg)
RCS (m²)
31.62

Purposes: comms, nav

External: N2YO · Heavens-Above · Gunter

§ Orbital elements

Epoch: 2026-08-21T18:11:43.719360Z

Period
1,436.35 min
Inclination
54.3073°
Eccentricity
0.0058186
Mean motion
1.00253816 rev/d
Perigee alt
35,546.3 km
Apogee alt
36,037.0 km
Semi-major
42,169.8 km
B*
0.0000e+0
RAAN
162.3689°
Arg perigee
224.3483°
Mean anomaly
321.2966°
Rev number
5,875

§ Raw data

BEIDOU-2 IGSO-1 (C06)1 36828U 10036A   26233.75814490 -.00000137  00000+0  00000+0 0  99912 36828  54.3073 162.3689 0058186 224.3483 321.2966  1.00253816 58750

JSON: /api/v1/satellites/36828 · /tle

For live sub-satellite position, see the globe view (requires WebGL).

§ Visibility from observer

Set your observer location to see the next 7 days of passes ≥ 10°. The values pass through the URL so the page stays shareable.

No JS? Fill the form by hand. The geolocation button needs JavaScript.